Regional Weather Roundup
Issued by NWS Midland/Odessa, TX

Home | Current Version | Previous Version | Text Only | Print | Product List | Glossary On
Versions: 1 2 3 4 5 6 7 8 9 10 11 12 13 14 15 16 17 18 19 20 21 22 23 24 25 26 27 28 29 30 31 32 33 34 35 36 37 38 39 40 41 42 43 44 45 46 47 48 49 50
000
ASUS44 KMAF 261110
RWRMAF
MIDLAND AREA WEATHER ROUNDUP
NATIONAL WEATHER SERVICE MIDLAND TX
600 AM CDT FRI MAY 26 2017

...IN SOUTHWEST TEXAS AND SOUTHEAST NEW MEXICO...

CITY           SKY/WX    TMP DP  RH WIND       PRES   REMARKS
ALPINE         PTCLDY    71  32  23 W8        30.04S
ANDREWS        FAIR      68  59  71 SW9       29.85R
ARTESIA        MOCLDY    66  21  18 W13       29.87R
BIG SPRING     PTCLDY    68  61  77 S6        29.84R
CARLSBAD       CLOUDY    73  22  14 SW12      29.85R
DRYDEN           N/A     72  65  78 N8        29.81R
FORT STOCKTON  CLEAR     69  42  37 SW9       29.87R
GUAD PASS      CLOUDY    71  27  19 W36G46    29.98R
HOBBS          CLOUDY    70  21  16 W8        29.88R
MARFA          CLEAR     70  32  24 W13       30.03R
MIDLAND AIRPK  PTCLDY    75  61  61 SW10      29.84R
MIDLAND INTL   PTCLDY    72  61  68 SW9       29.83R
ODESSA         CLEAR     70  60  70 SW5       29.85R
PECOS          PTCLDY    77  31  18 SW10      29.84R
PRESIDIO       FAIR      80  33  18 NW5       29.90R
SEMINOLE       PTCLDY    65  33  30 W9        29.85R
SNYDER         PTCLDY    71  61  70 SW3       29.80R
WINK           CLOUDY    71  35  26 CALM      29.83R
$$
...OTHER STATIONS IN TEXAS...

CITY           SKY/WX    TMP DP  RH WIND       PRES   REMARKS
ABILENE        CLOUDY    75  64  68 S17G26    29.75R
AMARILLO       PTCLDY    54  48  80 NW12      29.83R
AUSTIN         CLOUDY    78  72  81 S9        29.81R
BROWNSVILLE    CLOUDY    81  75  82 SE15      29.79S
CORPUS CHRISTI CLOUDY    80  75  84 S16G23    29.79R
DALLAS FTW     MOCLDY    76  71  85 S18G24    29.70R
DEL RIO        CLOUDY    76  73  91 E6        29.77R
EL PASO        CLEAR     77  30  17 W18       29.95R
HOUSTON INT    CLOUDY    75  70  84 S7        29.85R
LUBBOCK        MOCLDY    60  25  26 W8        29.81R
SAN ANGELO     MOCLDY    73  65  75 S8        29.78S
SAN ANTONIO    CLOUDY    76  71  85 S9        29.81R
WACO           CLOUDY    76  71  85 S15       29.78R
WICHITA FALLS  NOT AVBL
$$
...OTHER LOCATIONS IN NEW MEXICO...

CITY           SKY/WX    TMP DP  RH WIND       PRES   REMARKS
ALAMOGORDO     PTCLDY    70  19  14 SE3       29.98R
ALBUQUERQUE    PTCLDY    58  10  15 SE6       30.00R
CANNON AFB     CLOUDY    63  21  20 W9        29.89R
CLOVIS         CLOUDY    63  19  19 NW13      29.88R
HOLLOMAN AFB   MOCLDY    76  21  13 S7        29.99R
ROSWELL        PTCLDY    59  19  21 CALM      29.87R
RUIDOSO        CLOUDY    63  16  16 NW7       30.07R
SANTA FE       CLEAR     54   9  16 CALM      30.03R
TRUTH OR CONSE CLEAR     64  16  15 CALM      29.97R
TUCUMCARI      CLEAR     52  42  69 NE7       29.86R
$$




USA.gov is the U.S. government's official web portal to all federal, state and local government web resources and services.